Regional Weather Roundup
Issued by NWS

Home | Current Version | Previous Version | Graphics & Text | Print | Product List | Glossary On
Versions: 1 2 3 4 5 6 7 8 9 10 11 12 13 14 15 16 17 18 19 20 21 22 23 24 25 26 27 28 29 30 31 32 33 34 35 36 37 38 39 40 41 42 43 44 45 46 47 48 49 50
000
ASUS43 KLMK 260310
RWRKY
KENTUCKY REGIONAL WEATHER ROUNDUP
NATIONAL WEATHER SERVICE LOUISVILLE KY
1100 PM EDT MON MAY 25 2015

NOTE "FAIR" INDICATES FEW OR NO CLOUDS BELOW 12,000 FEET
WITH NO SIGNIFICANT WEATHER AND/OR OBSTRUCTIONS TO VISIBILITY.

KYZ001>023-026-027-061>063-070>075-260400-
WESTERN AND SOUTH CENTRAL KENTUCKY

CITY           SKY/WX    TMP DP  RH WIND       PRES   REMARKS
PADUCAH        MOCLDY    70  67  90 SE5       30.02F
HENDERSON      CLOUDY    68  64  88 SE6       30.06S
OWENSBORO      CLOUDY    68  67  96 SE5       30.09R
HOPKINSVILLE   CLOUDY    70  67  91 SE6       30.09R
BOWLING GREEN  CLOUDY    69  64  84 S5        30.14R
GLASGOW        MOCLDY    67  66  97 CALM      30.15R
$$

KYZ024-025-028>034-038-045-046-053-260400-
NORTH CENTRAL KENTUCKY

CITY           SKY/WX    TMP DP  RH WIND       PRES   REMARKS
LOUISVILLE/SDF CLOUDY    72  66  81 S8        30.11R
LOUISVILLE/LOU CLOUDY    72  66  81 S6        30.12R
FORT KNOX      MOCLDY    68  66  93 S6        30.12R
$$

KYZ035>037-039>044-047>052-055>060-089>105-260400-
NORTHEAST KENTUCKY

CITY           SKY/WX    TMP DP  RH WIND       PRES   REMARKS
LEXINGTON      MOCLDY    67  66  97 S5        30.14R
COVINGTON      MOCLDY    71  64  78 S9        30.11R
FRANKFORT      MOCLDY    68  63  84 CALM      30.12R
$$

KYZ054-064>069-076>088-106>120-260400-
SOUTHEAST KENTUCKY

CITY           SKY/WX    TMP DP  RH WIND       PRES   REMARKS
JACKSON        PTCLDY    74  59  59 CALM      30.16R
LONDON         MOCLDY    72  62  71 W6        30.17R
SOMERSET       CLOUDY    68  63  83 SW3       30.17R
MIDDLESBORO    CLOUDY    74  64  70 S12       30.17R
MONTICELLO     CLOUDY    69  66  90 SW5       30.18R
$$




USA.gov is the U.S. government's official web portal to all federal, state and local government web resources and services.